QPF
0.05 0.07 0.06 0.06 0.07 0.06 0.07 0.09 0.09 0.09 0.09 0.07 0.06 0.05 0.04 0.04 0.05 0.03 0.04 0.04 0.03 0.03 0.03 0.03 0.04 0.05 0.06 0.05 0.05 0.04 0.03 0.03 0.03 0.03 0.04 0.06 0.07 0.07
0.06 0.06 0.07 0.07 0.09 0.08 0.07 0.08 0.08 0.08 0.08 0.07 0.05 0.04 0.05 0.06 0.06 0.05 0.06 0.07 0.06 0.05 0.04 0.04 0.04 0.05 0.06 0.06 0.05 0.04 0.04 0.03 0.02 0.02 0.02 0.03 0.04 0.05
0.05 0.06 0.06 0.07 0.08 0.08 0.10 0.09 0.08 0.09 0.09 0.10 0.11 0.09 0.09 0.11 0.10 0.09 0.09 0.08 0.08 0.06 0.05 0.05 0.05 0.06 0.07 0.08 0.07 0.06 0.05 0.05 0.04 0.04 0.03 0.03 0.03 0.03
0.06 0.07 0.06 0.07 0.09 0.11 0.12 0.10 0.08 0.08 0.08 0.10 0.11 0.11 0.12 0.12 0.11 0.11 0.10 0.08 0.08 0.07 0.06 0.05 0.05 0.05 0.06 0.06 0.06 0.05 0.05 0.05 0.05 0.05 0.05 0.04 0.04 0.05
0.07 0.07 0.05 0.06 0.07 0.08 0.09 0.09 0.09 0.10 0.09 0.08 0.07 0.07 0.08 0.08 0.09 0.09 0.10 0.10 0.08 0.08 0.08 0.06 0.05 0.04 0.04 0.04 0.04 0.05 0.05 0.04 0.04 0.04 0.04 0.03 0.04 0.04
0.06 0.05 0.04 0.04 0.05 0.07 0.06 0.07 0.08 0.08 0.09 0.09 0.08 0.07 0.08 0.08 0.09 0.10 0.12 0.11 0.10 0.09 0.08 0.07 0.06 0.04 0.03 0.04 0.03 0.04 0.04 0.05 0.05 0.04 0.04 0.04 0.04 0.04
0.05 0.04 0.03 0.03 0.05 0.04 0.04 0.06 0.06 0.06 0.06 0.06 0.05 0.05 0.07 0.09 0.08 0.08 0.10 0.13 0.13 0.12 0.10 0.07 0.06 0.05 0.04 0.04 0.04 0.03 0.04 0.04 0.04 0.05 0.05 0.05 0.05 0.05
0.05 0.04 0.02 0.02 0.02 0.02 0.03 0.03 0.04 0.04 0.04 0.05 0.05 0.05 0.06 0.08 0.09 0.10 0.13 0.13 0.11 0.10 0.09 0.08 0.06 0.05 0.04 0.04 0.04 0.04 0.04 0.04 0.05 0.05 0.04 0.04 0.04 0.04
0.04 0.03 0.02 0.01 0.02 0.02 0.03 0.03 0.03 0.03 0.04 0.04 0.04 0.04 0.06 0.07 0.09 0.09 0.10 0.10 0.10 0.10 0.09 0.09 0.09 0.07 0.04 0.04 0.05 0.05 0.05 0.05 0.05 0.04 0.04 0.03 0.03 0.03
0.03 0.03 0.02 0.02 0.02 0.03 0.03 0.04 0.04 0.03 0.04 0.03 0.04 0.05 0.05 0.07 0.08 0.09 0.10 0.09 0.09 0.10 0.09 0.10 0.09 0.08 0.07 0.07 0.07 0.06 0.06 0.06 0.07 0.07 0.06 0.06 0.05 0.05
0.03 0.03 0.03 0.02 0.03 0.03 0.03 0.04 0.04 0.03 0.03 0.03 0.04 0.05 0.06 0.06 0.06 0.07 0.07 0.08 0.08 0.09 0.09 0.09 0.08 0.08 0.08 0.08 0.07 0.07 0.05 0.04 0.04 0.03 0.04 0.05 0.06 0.07
0.03 0.02 0.02 0.02 0.02 0.02 0.03 0.04 0.04 0.04 0.03 0.03 0.04 0.04 0.05 0.05 0.05 0.05 0.06 0.08 0.08 0.10 0.10 0.09 0.09 0.09 0.11 0.11 0.10 0.09 0.07 0.05 0.05 0.04 0.03 0.04 0.05 0.05
0.04 0.03 0.03 0.03 0.03 0.03 0.04 0.04 0.04 0.04 0.05 0.06 0.06 0.05 0.05 0.04 0.04 0.04 0.04 0.06 0.07 0.08 0.08 0.09 0.10 0.11 0.11 0.12 0.14 0.15 0.13 0.10 0.07 0.05 0.04 0.03 0.03 0.04
0.03 0.02 0.02 0.02 0.02 0.03 0.04 0.05 0.07 0.06 0.07 0.08 0.07 0.07 0.06 0.04 0.04 0.04 0.04 0.04 0.05 0.06 0.08 0.09 0.12 0.14 0.14 0.15 0.16 0.17 0.15 0.12 0.09 0.07 0.05 0.04 0.04 0.04
0.01 0.01 0.01 0.01 0.02 0.04 0.05 0.05 0.05 0.06 0.08 0.08 0.08 0.07 0.06 0.05 0.03 0.03 0.03 0.03 0.03 0.04 0.06 0.08 0.11 0.16 0.20 0.20 0.18 0.16 0.14 0.14 0.12 0.11 0.09 0.07 0.06 0.06
0.01 0.01 0.01 0.01 0.01 0.02 0.03 0.04 0.04 0.04 0.04 0.05 0.05 0.04 0.03 0.03 0.02 0.02 0.03 0.04 0.04 0.04 0.04 0.06 0.09 0.14 0.18 0.18 0.17 0.16 0.13 0.12 0.13 0.12 0.10 0.08 0.07 0.06
0.01 0.01 0.01 0.01 0.01 0.01 0.01 0.02 0.02 0.02 0.02 0.02 0.02 0.01 0.01 0.01 0.01 0.02 0.02 0.02 0.02 0.02 0.02 0.02 0.04 0.07 0.09 0.11 0.12 0.12 0.11 0.11 0.10 0.09 0.08 0.07 0.05 0.05
0.02 0.01 0.01 0.01 0.01 0.01 0.00 0.00 0.00 0.00 0.01 0.00 0.00 0.00 0.00 0.01 0.01 0.01 0.01 0.01 0.01 0.01 0.01 0.02 0.02 0.04 0.05 0.07 0.08 0.08 0.08 0.08 0.08 0.08 0.07 0.07 0.06 0.05
0.03 0.03 0.03 0.03 0.02 0.01 0.01 0.01 0.01 0.00 0.00 0.00 0.00 0.00 0.00 0.01 0.01 0.01 0.01 0.01 0.01 0.01 0.01 0.01 0.01 0.02 0.02 0.03 0.03 0.04 0.05 0.06 0.06 0.07 0.06 0.05 0.04 0.04
0.05 0.06 0.07 0.06 0.05 0.03 0.02 0.02 0.01 0.01 0.01 0.01 0.00 0.00 0.00 0.01 0.01 0.01 0.01 0.01 0.01 0.01 0.01 0.01 0.01 0.01 0.01 0.01 0.01 0.01 0.02 0.02 0.02 0.02 0.02 0.02 0.02 0.02
0.03 0.03 0.04 0.03 0.03 0.03 0.03 0.02 0.02 0.02 0.02 0.02 0.02 0.02 0.02 0.02 0.02 0.01 0.02 0.01 0.01 0.01 0.01 0.01 0.01 0.01 0.01 0.01 0.01 0.01 0.01 0.01 0.01 0.01 0.01 0.02 0.02 0.01
0.03 0.03 0.03 0.02 0.02 0.02 0.02 0.02 0.01 0.02 0.02 0.02 0.03 0.03 0.04 0.04 0.04 0.03 0.03 0.03 0.02 0.02 0.02 0.01 0.01 0.01 0.01 0.01 0.01 0.01 0.01 0.01 0.01 0.01 0.01 0.02 0.02 0.02
0.03 0.03 0.03 0.02 0.02 0.02 0.01 0.01 0.01 0.01 0.01 0.02 0.02 0.03 0.04 0.05 0.04 0.04 0.04 0.03 0.03 0.02 0.02 0.02 0.01 0.01 0.01 0.00 0.01 0.01 0.01 0.01 0.02 0.02 0.02 0.02 0.01 0.01
MSLP
1019.46 1019.25 1019.16 1019.21 1019.41 1019.76 1020.21 1020.74 1021.29 1021.81 1022.27 1022.62 1022.84 1022.93 1022.90 1022.76 1022.55 1022.27 1021.97 1021.66 1021.34 1021.04 1020.75 1020.45 1020.14 1019.82 1019.46 1019.06 1018.63 1018.16 1017.67 1017.17 1016.69 1016.23 1015.83 1015.50 1015.25 1015.09
1020.69 1020.46 1020.30 1020.26 1020.33 1020.52 1020.82 1021.19 1021.59 1021.99 1022.35 1022.63 1022.82 1022.91 1022.89 1022.79 1022.62 1022.40 1022.16 1021.92 1021.68 1021.45 1021.23 1021.01 1020.78 1020.52 1020.23 1019.88 1019.48 1019.02 1018.51 1017.95 1017.38 1016.80 1016.24 1015.73 1015.28 1014.91
1021.86 1021.61 1021.41 1021.27 1021.23 1021.28 1021.42 1021.63 1021.88 1022.16 1022.41 1022.62 1022.77 1022.83 1022.82 1022.73 1022.59 1022.41 1022.21 1022.01 1021.82 1021.65 1021.50 1021.36 1021.21 1021.05 1020.85 1020.60 1020.28 1019.89 1019.42 1018.88 1018.28 1017.64 1016.98 1016.33 1015.71 1015.15
1022.98 1022.72 1022.48 1022.28 1022.14 1022.08 1022.09 1022.17 1022.30 1022.45 1022.61 1022.75 1022.84 1022.87 1022.84 1022.75 1022.61 1022.43 1022.24 1022.04 1021.87 1021.72 1021.61 1021.52 1021.44 1021.36 1021.26 1021.12 1020.92 1020.63 1020.26 1019.79 1019.23 1018.59 1017.90 1017.17 1016.44 1015.75
1024.05 1023.80 1023.55 1023.32 1023.12 1022.98 1022.90 1022.88 1022.91 1022.98 1023.05 1023.12 1023.15 1023.14 1023.07 1022.94 1022.77 1022.56 1022.34 1022.11 1021.91 1021.74 1021.62 1021.53 1021.49 1021.46 1021.44 1021.40 1021.31 1021.14 1020.89 1020.53 1020.06 1019.49 1018.82 1018.09 1017.33 1016.57
1025.08 1024.85 1024.62 1024.38 1024.17 1024.00 1023.87 1023.79 1023.75 1023.75 1023.76 1023.76 1023.74 1023.67 1023.54 1023.37 1023.14 1022.87 1022.58 1022.29 1022.02 1021.79 1021.61 1021.49 1021.43 1021.41 1021.42 1021.44 1021.43 1021.37 1021.24 1021.00 1020.65 1020.19 1019.61 1018.94 1018.22 1017.46
1026.05 1025.87 1025.67 1025.46 1025.27 1025.09 1024.95 1024.85 1024.77 1024.72 1024.67 1024.61 1024.53 1024.40 1024.22 1023.98 1023.68 1023.35 1022.98 1022.61 1022.25 1021.93 1021.67 1021.47 1021.34 1021.28 1021.28 1021.31 1021.34 1021.35 1021.30 1021.17 1020.95 1020.61 1020.15 1019.60 1018.96 1018.28
1026.96 1026.82 1026.68 1026.52 1026.36 1026.21 1026.07 1025.95 1025.85 1025.76 1025.66 1025.56 1025.41 1025.23 1024.99 1024.69 1024.34 1023.94 1023.50 1023.05 1022.61 1022.20 1021.84 1021.54 1021.33 1021.18 1021.11 1021.10 1021.11 1021.13 1021.13 1021.08 1020.94 1020.72 1020.39 1019.96 1019.45 1018.89
1027.76 1027.68 1027.59 1027.48 1027.37 1027.25 1027.12 1027.00 1026.88 1026.75 1026.61 1026.45 1026.25 1026.02 1025.73 1025.39 1025.00 1024.56 1024.08 1023.58 1023.08 1022.59 1022.14 1021.75 1021.43 1021.18 1021.01 1020.90 1020.85 1020.83 1020.82 1020.78 1020.70 1020.56 1020.33 1020.03 1019.65 1019.21
1028.46 1028.42 1028.38 1028.31 1028.24 1028.14 1028.02 1027.88 1027.73 1027.56 1027.38 1027.16 1026.92 1026.65 1026.33 1025.97 1025.57 1025.12 1024.64 1024.13 1023.60 1023.08 1022.57 1022.10 1021.68 1021.33 1021.04 1020.82 1020.66 1020.55 1020.47 1020.40 1020.31 1020.20 1020.04 1019.82 1019.55 1019.23
1029.04 1029.04 1029.03 1028.99 1028.93 1028.84 1028.71 1028.55 1028.36 1028.15 1027.91 1027.65 1027.37 1027.07 1026.74 1026.38 1025.99 1025.57 1025.12 1024.63 1024.12 1023.60 1023.07 1022.56 1022.07 1021.61 1021.21 1020.86 1020.58 1020.35 1020.16 1020.01 1019.88 1019.74 1019.60 1019.42 1019.22 1018.99
1029.55 1029.56 1029.56 1029.53 1029.46 1029.35 1029.20 1029.00 1028.77 1028.51 1028.22 1027.92 1027.61 1027.29 1026.96 1026.62 1026.26 1025.88 1025.48 1025.05 1024.59 1024.10 1023.58 1023.05 1022.52 1021.99 1021.49 1021.03 1020.62 1020.26 1019.96 1019.70 1019.48 1019.29 1019.11 1018.94 1018.76 1018.57
1030.01 1030.01 1029.99 1029.94 1029.85 1029.70 1029.51 1029.27 1029.00 1028.69 1028.36 1028.03 1027.69 1027.36 1027.04 1026.72 1026.40 1026.08 1025.73 1025.36 1024.96 1024.51 1024.03 1023.50 1022.95 1022.39 1021.83 1021.28 1020.76 1020.28 1019.86 1019.49 1019.17 1018.90 1018.66 1018.46 1018.27 1018.10
1030.44 1030.41 1030.35 1030.26 1030.12 1029.93 1029.69 1029.41 1029.10 1028.76 1028.40 1028.04 1027.70 1027.37 1027.05 1026.75 1026.47 1026.18 1025.88 1025.56 1025.20 1024.80 1024.35 1023.85 1023.30 1022.72 1022.12 1021.52 1020.93 1020.37 1019.85 1019.38 1018.96 1018.61 1018.31 1018.05 1017.84 1017.66
1030.84 1030.76 1030.64 1030.49 1030.29 1030.05 1029.77 1029.46 1029.12 1028.76 1028.40 1028.04 1027.69 1027.37 1027.06 1026.77 1026.49 1026.22 1025.94 1025.64 1025.31 1024.93 1024.51 1024.03 1023.50 1022.93 1022.32 1021.70 1021.07 1020.45 1019.87 1019.33 1018.85 1018.43 1018.06 1017.76 1017.52 1017.32
1031.17 1031.02 1030.84 1030.62 1030.36 1030.07 1029.76 1029.43 1029.08 1028.73 1028.38 1028.04 1027.71 1027.39 1027.09 1026.79 1026.51 1026.23 1025.93 1025.62 1025.29 1024.92 1024.50 1024.04 1023.53 1022.97 1022.38 1021.76 1021.13 1020.50 1019.89 1019.31 1018.79 1018.32 1017.92 1017.58 1017.31 1017.09
1031.37 1031.15 1030.89 1030.60 1030.29 1029.97 1029.64 1029.31 1028.99 1028.67 1028.35 1028.04 1027.74 1027.44 1027.13 1026.83 1026.51 1026.19 1025.86 1025.52 1025.15 1024.76 1024.33 1023.88 1023.38 1022.85 1022.29 1021.70 1021.09 1020.47 1019.87 1019.29 1018.75 1018.26 1017.83 1017.47 1017.18 1016.96
1031.37 1031.08 1030.76 1030.42 1030.07 1029.73 1029.41 1029.10 1028.81 1028.54 1028.28 1028.02 1027.75 1027.46 1027.16 1026.83 1026.48 1026.11 1025.73 1025.32 1024.91 1024.48 1024.04 1023.58 1023.10 1022.60 1022.07 1021.52 1020.95 1020.37 1019.79 1019.22 1018.68 1018.18 1017.74 1017.37 1017.07 1016.84
1031.16 1030.81 1030.44 1030.06 1029.69 1029.35 1029.05 1028.78 1028.54 1028.33 1028.13 1027.92 1027.69 1027.42 1027.12 1026.77 1026.38 1025.96 1025.52 1025.06 1024.59 1024.12 1023.66 1023.20 1022.74 1022.26 1021.78 1021.27 1020.74 1020.19 1019.64 1019.08 1018.55 1018.05 1017.59 1017.20 1016.89 1016.64
1030.73 1030.35 1029.95 1029.55 1029.18 1028.86 1028.58 1028.36 1028.18 1028.03 1027.88 1027.72 1027.53 1027.28 1026.97 1026.60 1026.18 1025.71 1025.22 1024.71 1024.20 1023.71 1023.23 1022.78 1022.33 1021.89 1021.44 1020.97 1020.48 1019.96 1019.42 1018.87 1018.33 1017.81 1017.33 1016.92 1016.57 1016.31
1030.13 1029.74 1029.34 1028.95 1028.60 1028.30 1028.07 1027.89 1027.76 1027.66 1027.55 1027.43 1027.25 1027.01 1026.70 1026.31 1025.85 1025.35 1024.82 1024.28 1023.75 1023.25 1022.78 1022.33 1021.91 1021.50 1021.08 1020.65 1020.18 1019.68 1019.14 1018.58 1018.01 1017.46 1016.94 1016.48 1016.10 1015.79
1029.43 1029.06 1028.68 1028.31 1027.99 1027.74 1027.54 1027.40 1027.31 1027.23 1027.15 1027.03 1026.86 1026.61 1026.28 1025.87 1025.39 1024.87 1024.32 1023.77 1023.24 1022.74 1022.28 1021.86 1021.47 1021.09 1020.71 1020.30 1019.84 1019.34 1018.79 1018.21 1017.60 1017.00 1016.43 1015.91 1015.46 1015.10
1028.69 1028.35 1028.01 1027.69 1027.41 1027.20 1027.03 1026.92 1026.85 1026.78 1026.69 1026.56 1026.37 1026.09 1025.73 1025.30 1024.80 1024.26 1023.70 1023.15 1022.64 1022.16 1021.74 1021.35 1021.00 1020.66 1020.30 1019.90 1019.46 1018.95 1018.38 1017.77 1017.11 1016.46 1015.82 1015.24 1014.72 1014.30
Thickness
5743 5741 5740 5741 5741 5740 5739 5736 5729 5724 5724 5727 5728 5730 5729 5727 5725 5723 5721 5717 5715 5713 5711 5709 5708 5705 5703 5702 5700 5698 5696 5694 5693 5691 5690 5689 5688 5687
5740 5738 5737 5739 5738 5738 5736 5734 5731 5727 5722 5724 5724 5726 5725 5725 5721 5720 5717 5714 5712 5710 5708 5706 5704 5702 5700 5697 5695 5693 5691 5690 5688 5686 5685 5684 5683 5682
5737 5736 5734 5734 5734 5734 5733 5731 5728 5726 5720 5720 5721 5721 5719 5718 5717 5716 5714 5711 5709 5706 5703 5701 5699 5697 5694 5692 5690 5688 5686 5684 5683 5681 5679 5678 5677 5676
5734 5733 5731 5731 5729 5729 5728 5727 5725 5723 5719 5715 5716 5715 5714 5713 5712 5711 5711 5709 5706 5702 5699 5696 5692 5690 5688 5686 5684 5682 5680 5678 5676 5675 5673 5671 5670 5669
5731 5729 5728 5727 5725 5725 5724 5723 5722 5721 5718 5715 5713 5712 5712 5711 5709 5708 5707 5703 5702 5698 5694 5690 5687 5683 5680 5678 5677 5675 5673 5671 5669 5667 5665 5663 5662 5661
5727 5726 5724 5722 5721 5720 5720 5719 5718 5716 5714 5712 5711 5709 5707 5706 5704 5702 5699 5698 5696 5695 5690 5686 5681 5678 5674 5671 5669 5668 5665 5663 5661 5659 5658 5656 5655 5653
5722 5721 5719 5717 5715 5715 5716 5714 5712 5711 5710 5708 5706 5704 5701 5698 5697 5697 5694 5692 5689 5687 5685 5682 5678 5674 5669 5664 5661 5659 5657 5655 5652 5651 5650 5648 5647 5645
5716 5715 5714 5713 5710 5707 5706 5705 5704 5703 5703 5701 5699 5695 5692 5691 5690 5690 5687 5684 5680 5680 5677 5675 5672 5668 5664 5659 5654 5651 5649 5646 5644 5642 5640 5639 5637 5636
5710 5709 5710 5709 5706 5704 5701 5698 5696 5694 5692 5692 5689 5686 5685 5684 5682 5682 5678 5676 5673 5672 5668 5665 5663 5659 5655 5651 5646 5643 5640 5637 5635 5632 5630 5628 5627 5626
5703 5702 5701 5699 5698 5696 5695 5694 5691 5688 5685 5683 5681 5679 5677 5675 5674 5674 5671 5669 5667 5664 5660 5656 5654 5650 5647 5642 5637 5634 5631 5628 5625 5622 5620 5618 5617 5615
5697 5694 5693 5691 5687 5686 5687 5685 5682 5679 5675 5672 5670 5668 5666 5665 5664 5666 5663 5662 5659 5656 5652 5648 5645 5640 5637 5633 5628 5625 5622 5619 5615 5612 5610 5607 5606 5605
5690 5687 5682 5680 5677 5676 5678 5676 5673 5670 5669 5666 5662 5660 5658 5657 5654 5653 5653 5652 5650 5646 5641 5637 5635 5631 5626 5623 5619 5616 5613 5609 5606 5603 5600 5597 5595 5594
5685 5680 5674 5669 5668 5667 5667 5666 5662 5661 5660 5658 5655 5653 5650 5647 5645 5643 5641 5640 5637 5634 5631 5627 5624 5621 5617 5612 5608 5606 5603 5600 5596 5592 5589 5586 5583 5582
5675 5672 5666 5660 5659 5657 5657 5654 5652 5652 5652 5649 5646 5642 5639 5637 5634 5631 5628 5626 5623 5621 5617 5614 5613 5609 5606 5602 5598 5594 5591 5588 5585 5582 5578 5575 5573 5570
5666 5659 5656 5653 5651 5650 5646 5644 5645 5644 5642 5639 5635 5631 5629 5625 5623 5621 5618 5615 5613 5609 5606 5602 5600 5597 5594 5590 5587 5582 5579 5576 5573 5570 5567 5564 5562 5560
5656 5651 5648 5645 5644 5641 5639 5638 5637 5634 5632 5628 5625 5622 5619 5617 5614 5612 5609 5606 5603 5599 5594 5590 5587 5583 5581 5577 5574 5571 5568 5565 5561 5558 5554 5552 5550 5548
5649 5647 5644 5641 5638 5635 5632 5629 5627 5624 5621 5618 5616 5613 5610 5607 5604 5601 5598 5596 5592 5588 5584 5579 5574 5571 5567 5564 5562 5559 5556 5553 5549 5545 5542 5542 5539 5536
5641 5639 5635 5632 5629 5626 5623 5620 5616 5613 5610 5608 5605 5602 5599 5596 5594 5590 5587 5584 5581 5577 5573 5568 5564 5561 5557 5553 5546 5545 5543 5539 5536 5533 5531 5530 5528 5524
5632 5629 5625 5621 5618 5616 5613 5610 5606 5603 5599 5598 5595 5592 5589 5586 5583 5579 5576 5572 5568 5565 5561 5557 5553 5550 5547 5543 5537 5530 5529 5526 5524 5522 5520 5517 5515 5512
5622 5619 5615 5612 5609 5605 5603 5600 5596 5593 5591 5588 5584 5581 5578 5575 5571 5568 5564 5559 5556 5553 5549 5545 5541 5536 5533 5529 5527 5522 5515 5514 5512 5509 5507 5505 5503 5499
5612 5609 5605 5602 5599 5595 5592 5588 5585 5583 5579 5577 5574 5569 5566 5563 5559 5556 5552 5545 5543 5541 5538 5533 5527 5522 5521 5519 5516 5513 5508 5501 5498 5496 5495 5494 5492 5490
5602 5599 5595 5592 5588 5584 5580 5578 5575 5572 5568 5567 5563 5559 5556 5552 5549 5545 5542 5538 5534 5530 5526 5522 5518 5516 5513 5510 5507 5504 5500 5495 5490 5486 5483 5480 5479 5478
5592 5589 5586 5581 5577 5572 5569 5567 5565 5562 5558 5555 5552 5548 5545 5541 5538 5534 5531 5528 5523 5519 5516 5513 5510 5507 5504 5501 5498 5495 5491 5488 5486 5483 5479 5472 5467 5464